SWA7ML KJFK-KCLE

Flight info

Callsign SWA7ML
Flight time 1h 59m
Altitude 35000
Route GREKI JUDDS MARTN CAM/N0467F340 Q822 GONZZ HANKK THOME TRYBE4
Aircraft B738/M-SDE2E3FGHIRWXY/LB1

Departure

Time 2026-05-08 23:32
Airport John F. Kennedy International Airport (KJFK)

Arrival

Time 2026-05-09 01:31
Airport Cleveland Hopkins International Airport (KCLE)
Time Latitude Longitude Altitude Speed Heading
2026-05-08 22:55 40.64720 -73.77599 19 ft 0 kts 206°
2026-05-08 23:19 40.64722 -73.77598 19 ft 2 kts 206°
2026-05-08 23:19 40.64745 -73.77584 23 ft 4 kts 202°
2026-05-08 23:20 40.64771 -73.77572 20 ft 4 kts 194°
2026-05-08 23:20 40.64797 -73.77567 20 ft 4 kts 171°
2026-05-08 23:20 40.64815 -73.77578 21 ft 1 kts 119°
2026-05-08 23:22 40.64814 -73.77575 21 ft 2 kts 118°
2026-05-08 23:23 40.64797 -73.77536 21 ft 8 kts 122°
2026-05-08 23:23 40.64758 -73.77456 19 ft 12 kts 121°
2026-05-08 23:23 40.64770 -73.77364 19 ft 12 kts 41°
2026-05-08 23:23 40.64762 -73.77266 20 ft 12 kts 117°
2026-05-08 23:24 40.64722 -73.77173 19 ft 12 kts 123°
2026-05-08 23:24 40.64645 -73.77094 22 ft 18 kts 167°
2026-05-08 23:24 40.64497 -73.77091 19 ft 24 kts 182°
2026-05-08 23:24 40.64415 -73.77008 19 ft 16 kts 105°
2026-05-08 23:25 40.64373 -73.76878 19 ft 15 kts 129°
2026-05-08 23:25 40.64273 -73.76879 19 ft 15 kts 187°
2026-05-08 23:25 40.64145 -73.76893 20 ft 22 kts 187°
2026-05-08 23:25 40.63978 -73.76913 20 ft 27 kts 178°
2026-05-08 23:26 40.63779 -73.76916 19 ft 30 kts 181°
2026-05-08 23:26 40.63570 -73.76918 19 ft 31 kts 180°
2026-05-08 23:26 40.63355 -73.76944 19 ft 30 kts 184°
2026-05-08 23:26 40.63157 -73.76951 19 ft 28 kts 188°
2026-05-08 23:27 40.62988 -73.77054 19 ft 23 kts 210°
2026-05-08 23:27 40.62944 -73.77088 20 ft 0 kts 211°
2026-05-08 23:28 40.62935 -73.77096 20 ft 7 kts 213°
2026-05-08 23:28 40.62895 -73.77129 22 ft 1 kts 209°
2026-05-08 23:29 40.62893 -73.77130 22 ft 0 kts 209°
2026-05-08 23:29 40.62857 -73.77156 21 ft 12 kts 209°
2026-05-08 23:29 40.62831 -73.77245 21 ft 7 kts 300°
2026-05-08 23:30 40.62832 -73.77247 24 ft 0 kts 301°
2026-05-08 23:31 40.62833 -73.77249 24 ft 4 kts 301°
2026-05-08 23:31 40.62968 -73.77546 25 ft 72 kts 301°
2026-05-08 23:31 40.63341 -73.78368 20 ft 135 kts 300°
2026-05-08 23:31 40.63917 -73.79602 133 ft 175 kts 304°
2026-05-08 23:32 40.64516 -73.80974 909 ft 165 kts 301°
2026-05-08 23:32 40.65047 -73.82287 1758 ft 162 kts 289°
2026-05-08 23:32 40.65212 -73.83772 2353 ft 175 kts 264°
2026-05-08 23:32 40.64783 -73.85375 2796 ft 197 kts 242°
2026-05-08 23:33 40.63793 -73.86674 3227 ft 214 kts 212°
2026-05-08 23:33 40.62396 -73.87415 3896 ft 211 kts 204°
2026-05-08 23:33 40.60942 -73.87923 4420 ft 223 kts 185°
2026-05-08 23:33 40.59465 -73.87251 5089 ft 236 kts 144°
2026-05-08 23:34 40.58457 -73.85452 5374 ft 261 kts 114°
2026-05-08 23:34 40.58197 -73.83065 5711 ft 277 kts 85°
2026-05-08 23:34 40.58507 -73.80470 5951 ft 296 kts 78°
2026-05-08 23:34 40.58924 -73.77754 6523 ft 307 kts 77°
2026-05-08 23:35 40.59356 -73.74991 7336 ft 309 kts 77°
2026-05-08 23:35 40.59790 -73.72204 8107 ft 312 kts 76°
2026-05-08 23:35 40.60616 -73.69583 8796 ft 310 kts 46°
2026-05-08 23:35 40.62268 -73.67907 9598 ft 294 kts 12°
2026-05-08 23:36 40.64215 -73.67275 10348 ft 290 kts
2026-05-08 23:36 40.66247 -73.66571 10619 ft 313 kts
2026-05-08 23:36 40.68416 -73.65734 10816 ft 336 kts
2026-05-08 23:36 40.70725 -73.64804 10998 ft 358 kts 10°
2026-05-08 23:37 40.73167 -73.63793 11178 ft 377 kts 10°
2026-05-08 23:37 40.75703 -73.62722 11596 ft 387 kts 11°
2026-05-08 23:37 40.78278 -73.61616 12319 ft 388 kts 10°
2026-05-08 23:37 40.80807 -73.60521 13153 ft 387 kts 10°
2026-05-08 23:38 40.83381 -73.59409 13768 ft 391 kts
2026-05-08 23:38 40.85992 -73.58286 14306 ft 395 kts
2026-05-08 23:38 40.88615 -73.57158 14866 ft 398 kts
2026-05-08 23:38 40.91266 -73.56019 15394 ft 402 kts 10°
2026-05-08 23:39 40.93942 -73.54868 15933 ft 406 kts 10°
2026-05-08 23:39 40.96638 -73.53707 16485 ft 409 kts 10°
2026-05-08 23:39 40.99356 -73.52536 17007 ft 412 kts 10°
2026-05-08 23:39 41.02111 -73.51502 17567 ft 408 kts
2026-05-08 23:40 41.04916 -73.51123 18116 ft 403 kts 355°
2026-05-08 23:40 41.07687 -73.50930 18600 ft 405 kts 355°
2026-05-08 23:40 41.10508 -73.50741 19055 ft 408 kts 355°
2026-05-08 23:40 41.13357 -73.50542 19469 ft 411 kts 355°
2026-05-08 23:41 41.16220 -73.50328 19923 ft 414 kts 355°
2026-05-08 23:41 41.19109 -73.50101 20360 ft 417 kts 355°
2026-05-08 23:41 41.22023 -73.49864 20793 ft 420 kts 355°
2026-05-08 23:41 41.24944 -73.49620 21208 ft 422 kts 355°
2026-05-08 23:42 41.27888 -73.49371 21606 ft 425 kts 355°
2026-05-08 23:42 41.30852 -73.49119 22001 ft 428 kts 355°
2026-05-08 23:42 41.33836 -73.48865 22393 ft 431 kts 355°
2026-05-08 23:42 41.36839 -73.48609 22768 ft 433 kts 355°
2026-05-08 23:43 41.39860 -73.48351 23155 ft 436 kts 355°
2026-05-08 23:43 41.42898 -73.48092 23531 ft 438 kts 355°
2026-05-08 23:43 41.45947 -73.47831 23839 ft 441 kts 355°
2026-05-08 23:43 41.49016 -73.47568 24163 ft 442 kts 355°
2026-05-08 23:44 41.52068 -73.47307 24494 ft 443 kts 355°
2026-05-08 23:44 41.55147 -73.47043 24780 ft 445 kts 355°
2026-05-08 23:44 41.58248 -73.46779 25002 ft 449 kts 355°
2026-05-08 23:44 41.61385 -73.46511 25260 ft 451 kts 355°
2026-05-08 23:45 41.64520 -73.46241 25540 ft 453 kts 355°
2026-05-08 23:45 41.67676 -73.45968 25822 ft 455 kts 355°
2026-05-08 23:45 41.70846 -73.45698 26054 ft 457 kts 354°
2026-05-08 23:45 41.74024 -73.45427 26412 ft 457 kts 354°
2026-05-08 23:46 41.77186 -73.45156 26803 ft 455 kts 354°
2026-05-08 23:46 41.80351 -73.44883 27154 ft 455 kts 354°
2026-05-08 23:46 41.83508 -73.44604 27618 ft 453 kts 354°
2026-05-08 23:46 41.86614 -73.44329 28071 ft 451 kts 354°
2026-05-08 23:47 41.89746 -73.44054 28459 ft 450 kts 354°
2026-05-08 23:47 41.92876 -73.43781 28806 ft 451 kts 354°
2026-05-08 23:47 41.96008 -73.43511 29165 ft 450 kts 353°
2026-05-08 23:47 41.99135 -73.43241 29553 ft 449 kts 353°
2026-05-08 23:48 42.02254 -73.42971 29949 ft 448 kts 353°
2026-05-08 23:48 42.05367 -73.42700 30353 ft 445 kts 353°
2026-05-08 23:48 42.08409 -73.42434 30655 ft 445 kts 354°
2026-05-08 23:48 42.11508 -73.42173 30758 ft 447 kts 353°
2026-05-08 23:49 42.14629 -73.41919 30872 ft 450 kts 353°
2026-05-08 23:49 42.17764 -73.41646 31153 ft 450 kts 353°
2026-05-08 23:49 42.20885 -73.41364 31474 ft 449 kts 353°
2026-05-08 23:49 42.23993 -73.41082 31805 ft 448 kts 353°
2026-05-08 23:50 42.27104 -73.40804 32099 ft 448 kts 353°
2026-05-08 23:50 42.30218 -73.40530 32338 ft 448 kts 353°
2026-05-08 23:50 42.33295 -73.40262 32599 ft 448 kts 353°
2026-05-08 23:50 42.36401 -73.39989 32931 ft 447 kts 353°
2026-05-08 23:51 42.39512 -73.39717 33081 ft 449 kts 353°
2026-05-08 23:51 42.42641 -73.39444 33318 ft 450 kts 354°
2026-05-08 23:51 42.45764 -73.39167 33678 ft 448 kts 354°
2026-05-08 23:51 42.48874 -73.38891 33940 ft 447 kts 354°
2026-05-08 23:52 42.54981 -73.38340 33930 ft 430 kts 354°
2026-05-08 23:52 42.60875 -73.37813 33931 ft 421 kts 353°
2026-05-08 23:53 42.66688 -73.37311 33923 ft 421 kts 353°
2026-05-08 23:53 42.72543 -73.36797 33940 ft 422 kts 354°
2026-05-08 23:54 42.78413 -73.36277 33925 ft 422 kts 354°
2026-05-08 23:55 42.87315 -73.35487 33953 ft 434 kts 354°
2026-05-08 23:55 42.93112 -73.36212 33953 ft 404 kts 330°
2026-05-08 23:56 42.98239 -73.39314 33930 ft 401 kts 327°
2026-05-08 23:56 43.03294 -73.42551 33939 ft 401 kts 327°
2026-05-08 23:57 43.08299 -73.45802 33935 ft 401 kts 327°
2026-05-08 23:57 43.13331 -73.49094 33934 ft 400 kts 327°
2026-05-08 23:58 43.18353 -73.52387 33930 ft 400 kts 327°
2026-05-08 23:58 43.23371 -73.55679 33952 ft 400 kts 327°
2026-05-08 23:59 43.28388 -73.58993 33924 ft 400 kts 327°
2026-05-08 23:59 43.32842 -73.63191 33938 ft 379 kts 302°
2026-05-08 23:59 43.34116 -73.66258 33955 ft 373 kts 291°
2026-05-09 00:00 43.35071 -73.69571 33928 ft 372 kts 288°
2026-05-09 00:00 43.36777 -73.76289 33925 ft 372 kts 287°
2026-05-09 00:01 43.38440 -73.83037 33931 ft 372 kts 287°
2026-05-09 00:01 43.40096 -73.89799 33923 ft 373 kts 287°
2026-05-09 00:02 43.41748 -73.96563 33931 ft 373 kts 287°
2026-05-09 00:02 43.43408 -74.03339 33938 ft 373 kts 287°
2026-05-09 00:03 43.45061 -74.10077 33933 ft 374 kts 287°
2026-05-09 00:03 43.46731 -74.16862 33944 ft 374 kts 287°
2026-05-09 00:04 43.48410 -74.23663 33933 ft 375 kts 287°
2026-05-09 00:04 43.49810 -74.29318 33932 ft 376 kts 287°
2026-05-09 00:05 43.51499 -74.36129 33943 ft 376 kts 287°
2026-05-09 00:05 43.53190 -74.42953 33942 ft 376 kts 287°
2026-05-09 00:06 43.54384 -74.49923 33944 ft 375 kts 267°
2026-05-09 00:06 43.53822 -74.53430 33938 ft 381 kts 250°
2026-05-09 00:06 43.52392 -74.56547 33948 ft 391 kts 234°
2026-05-09 00:07 43.48387 -74.61701 33955 ft 399 kts 228°
2026-05-09 00:07 43.44139 -74.66649 33951 ft 400 kts 227°
2026-05-09 00:08 43.39867 -74.71569 33943 ft 401 kts 227°
2026-05-09 00:08 43.35589 -74.76478 33945 ft 401 kts 227°
2026-05-09 00:09 43.31303 -74.81391 33950 ft 401 kts 227°
2026-05-09 00:09 43.27009 -74.86312 33953 ft 401 kts 227°
2026-05-09 00:10 43.22749 -74.91196 33957 ft 401 kts 227°
2026-05-09 00:10 43.18467 -74.96097 33948 ft 401 kts 227°
2026-05-09 00:11 43.14187 -75.00985 33958 ft 400 kts 227°
2026-05-09 00:11 43.09908 -75.05868 33960 ft 400 kts 227°
2026-05-09 00:12 43.05640 -75.10735 33952 ft 399 kts 227°
2026-05-09 00:12 43.01379 -75.15580 33943 ft 397 kts 227°
2026-05-09 00:13 42.97132 -75.20394 33956 ft 396 kts 227°
2026-05-09 00:13 42.92960 -75.25201 33944 ft 390 kts 234°
2026-05-09 00:13 42.91557 -75.28226 33972 ft 370 kts 255°
2026-05-09 00:14 42.90931 -75.31598 33956 ft 366 kts 264°
2026-05-09 00:14 42.91057 -75.38477 33961 ft 364 kts 279°
2026-05-09 00:15 42.92040 -75.45275 33964 ft 366 kts 281°
2026-05-09 00:15 42.93057 -75.52091 33949 ft 367 kts 280°
2026-05-09 00:16 42.94040 -75.58896 33957 ft 368 kts 280°
2026-05-09 00:16 42.95009 -75.65760 33948 ft 369 kts 280°
2026-05-09 00:17 42.95971 -75.72646 33948 ft 369 kts 280°
2026-05-09 00:17 42.96928 -75.79544 33963 ft 370 kts 280°
2026-05-09 00:18 42.97881 -75.86444 33941 ft 370 kts 279°
2026-05-09 00:18 42.98831 -75.93356 33939 ft 369 kts 279°
2026-05-09 00:19 42.99767 -76.00200 33927 ft 369 kts 279°
2026-05-09 00:19 43.00710 -76.07122 33927 ft 368 kts 279°
2026-05-09 00:20 43.01634 -76.13940 33923 ft 366 kts 279°
2026-05-09 00:20 43.02558 -76.20784 33924 ft 365 kts 279°
2026-05-09 00:21 43.03473 -76.27599 33931 ft 364 kts 279°
2026-05-09 00:21 43.04381 -76.34395 33930 ft 363 kts 279°
2026-05-09 00:22 43.05284 -76.41185 33933 ft 362 kts 279°
2026-05-09 00:22 43.06181 -76.47961 33937 ft 362 kts 279°
2026-05-09 00:23 43.07074 -76.54737 33936 ft 362 kts 279°
2026-05-09 00:23 43.07965 -76.61524 33939 ft 362 kts 279°
2026-05-09 00:24 43.07966 -76.68369 33944 ft 364 kts 262°
2026-05-09 00:24 43.06393 -76.74940 33940 ft 373 kts 246°
2026-05-09 00:25 43.03823 -76.81108 33929 ft 374 kts 246°
2026-05-09 00:25 43.01230 -76.87267 33951 ft 374 kts 246°
2026-05-09 00:26 42.98651 -76.93448 33939 ft 375 kts 246°
2026-05-09 00:26 42.96068 -76.99656 33934 ft 375 kts 246°
2026-05-09 00:27 42.93488 -77.05850 33930 ft 375 kts 246°
2026-05-09 00:27 42.90905 -77.12037 33929 ft 375 kts 246°
2026-05-09 00:28 42.88286 -77.18188 33922 ft 375 kts 245°
2026-05-09 00:28 42.85523 -77.24188 33934 ft 375 kts 244°
2026-05-09 00:29 42.82724 -77.30193 33918 ft 374 kts 244°
2026-05-09 00:29 42.79948 -77.36176 33924 ft 372 kts 244°
2026-05-09 00:30 42.77189 -77.42139 33942 ft 372 kts 244°
2026-05-09 00:30 42.74440 -77.48080 33928 ft 371 kts 244°
2026-05-09 00:31 42.71691 -77.54008 33914 ft 369 kts 245°
2026-05-09 00:31 42.68951 -77.59909 33924 ft 369 kts 245°
2026-05-09 00:32 42.66209 -77.65800 33911 ft 369 kts 245°
2026-05-09 00:32 42.63478 -77.71658 33915 ft 369 kts 245°
2026-05-09 00:33 42.60726 -77.77547 33915 ft 369 kts 245°
2026-05-09 00:33 42.57972 -77.83429 33930 ft 369 kts 245°
2026-05-09 00:34 42.55222 -77.89292 33935 ft 368 kts 245°
2026-05-09 00:34 42.52467 -77.95155 33947 ft 369 kts 245°
2026-05-09 00:35 42.49707 -78.01016 33943 ft 369 kts 245°
2026-05-09 00:35 42.46957 -78.06843 33941 ft 369 kts 245°
2026-05-09 00:36 42.44182 -78.12714 33929 ft 370 kts 245°
2026-05-09 00:36 42.41406 -78.18573 33919 ft 369 kts 244°
2026-05-09 00:37 42.38635 -78.24407 33918 ft 368 kts 245°
2026-05-09 00:37 42.35865 -78.30234 33917 ft 368 kts 245°
2026-05-09 00:38 42.33096 -78.36047 33915 ft 367 kts 245°
2026-05-09 00:38 42.30323 -78.41854 33921 ft 367 kts 245°
2026-05-09 00:39 42.27567 -78.47617 33914 ft 367 kts 245°
2026-05-09 00:39 42.24789 -78.53415 33915 ft 367 kts 245°
2026-05-09 00:40 42.22009 -78.59203 33918 ft 368 kts 245°
2026-05-09 00:40 42.19222 -78.64998 33924 ft 367 kts 245°
2026-05-09 00:41 42.15052 -78.73649 33927 ft 366 kts 245°
2026-05-09 00:41 42.12501 -78.79523 33915 ft 356 kts 256°
2026-05-09 00:42 42.10911 -78.85786 33927 ft 355 kts 255°
2026-05-09 00:42 42.09709 -78.88737 33918 ft 370 kts 238°
2026-05-09 00:42 42.07739 -78.91101 33933 ft 387 kts 225°
2026-05-09 00:43 42.03030 -78.94840 33918 ft 395 kts 220°
2026-05-09 00:43 41.98185 -78.98377 33915 ft 395 kts 220°
2026-05-09 00:44 41.93374 -79.01855 33927 ft 396 kts 220°
2026-05-09 00:44 41.88513 -79.05357 33938 ft 396 kts 220°
2026-05-09 00:45 41.83628 -79.08833 33941 ft 397 kts 220°
2026-05-09 00:45 41.78736 -79.12280 33942 ft 397 kts 220°
2026-05-09 00:46 41.73834 -79.15725 33950 ft 397 kts 220°
2026-05-09 00:46 41.68929 -79.19167 33958 ft 397 kts 220°
2026-05-09 00:47 41.64132 -79.22648 33931 ft 385 kts 229°
2026-05-09 00:47 41.62196 -79.24981 33970 ft 369 kts 237°
2026-05-09 00:47 41.60476 -79.27519 33960 ft 367 kts 239°
2026-05-09 00:48 41.57169 -79.32706 33952 ft 367 kts 240°
2026-05-09 00:48 41.54441 -79.37051 33956 ft 367 kts 240°
2026-05-09 00:49 41.51174 -79.42296 33945 ft 366 kts 242°
2026-05-09 00:49 41.49690 -79.46155 33932 ft 346 kts 259°
2026-05-09 00:49 41.49274 -79.48244 33949 ft 343 kts 262°
2026-05-09 00:50 41.48864 -79.54484 33956 ft 339 kts 273°
2026-05-09 00:50 41.49028 -79.60760 33910 ft 336 kts 273°
2026-05-09 00:51 41.49113 -79.63857 33465 ft 331 kts 273°
2026-05-09 00:51 41.49195 -79.66944 32746 ft 334 kts 273°
2026-05-09 00:51 41.49274 -79.70050 32229 ft 332 kts 273°
2026-05-09 00:51 41.49347 -79.73104 31975 ft 328 kts 273°
2026-05-09 00:52 41.49422 -79.76185 31751 ft 337 kts 273°
2026-05-09 00:52 41.49495 -79.79345 31492 ft 345 kts 273°
2026-05-09 00:52 41.49567 -79.82536 31245 ft 349 kts 272°
2026-05-09 00:52 41.49638 -79.85771 30882 ft 348 kts 272°
2026-05-09 00:53 41.49707 -79.88995 30282 ft 347 kts 272°
2026-05-09 00:53 41.49775 -79.92222 29550 ft 348 kts 272°
2026-05-09 00:53 41.49842 -79.95446 28871 ft 347 kts 272°
2026-05-09 00:53 41.49908 -79.98662 28177 ft 346 kts 272°
2026-05-09 00:54 41.49974 -80.01874 27486 ft 346 kts 272°
2026-05-09 00:54 41.50038 -80.05090 26778 ft 347 kts 272°
2026-05-09 00:54 41.50102 -80.08305 26054 ft 348 kts 272°
2026-05-09 00:54 41.50166 -80.11545 25312 ft 350 kts 272°
2026-05-09 00:55 41.50229 -80.14811 24552 ft 353 kts 272°
2026-05-09 00:55 41.50292 -80.18098 23779 ft 356 kts 272°
2026-05-09 00:55 41.50354 -80.21451 23065 ft 367 kts 272°
2026-05-09 00:55 41.50418 -80.24884 22389 ft 380 kts 271°
2026-05-09 00:56 41.50482 -80.28406 21743 ft 377 kts 271°
2026-05-09 00:56 41.50543 -80.31871 21114 ft 372 kts 271°
2026-05-09 00:56 41.50603 -80.35310 20516 ft 368 kts 271°
2026-05-09 00:56 41.50661 -80.38699 19911 ft 364 kts 271°
2026-05-09 00:57 41.50718 -80.42063 19337 ft 361 kts 271°
2026-05-09 00:57 41.50774 -80.45403 18764 ft 359 kts 271°
2026-05-09 00:57 41.50828 -80.48723 18185 ft 359 kts 271°
2026-05-09 00:57 41.50881 -80.52049 17533 ft 357 kts 271°
2026-05-09 00:58 41.50934 -80.55359 17021 ft 358 kts 271°
2026-05-09 00:58 41.50986 -80.58751 16428 ft 371 kts 270°
2026-05-09 00:58 41.51039 -80.62216 15828 ft 373 kts 270°
2026-05-09 00:58 41.51089 -80.65616 15226 ft 369 kts 270°
2026-05-09 00:59 41.51139 -80.69017 14642 ft 365 kts 270°
2026-05-09 00:59 41.51188 -80.72397 14070 ft 362 kts 270°
2026-05-09 00:59 41.51235 -80.75732 13471 ft 359 kts 270°
2026-05-09 00:59 41.51280 -80.79047 12848 ft 355 kts 270°
2026-05-09 01:00 41.51324 -80.82330 12259 ft 352 kts 270°
2026-05-09 01:00 41.51366 -80.85580 11696 ft 348 kts 270°
2026-05-09 01:00 41.51408 -80.88795 11148 ft 345 kts 270°
2026-05-09 01:00 41.51447 -80.91920 10890 ft 334 kts 270°
2026-05-09 01:01 41.51485 -80.94964 10722 ft 322 kts 270°
2026-05-09 01:01 41.51521 -80.97893 10579 ft 310 kts 270°
2026-05-09 01:01 41.51555 -81.00714 10443 ft 299 kts 270°
2026-05-09 01:01 41.51587 -81.03448 10319 ft 289 kts 270°
2026-05-09 01:02 41.51613 -81.06086 10185 ft 279 kts 269°
2026-05-09 01:02 41.51547 -81.08636 10061 ft 271 kts 267°
2026-05-09 01:02 41.51436 -81.11106 9988 ft 260 kts 266°
2026-05-09 01:02 41.51325 -81.13462 9866 ft 251 kts 266°
2026-05-09 01:03 41.51217 -81.15845 9344 ft 258 kts 266°
2026-05-09 01:03 41.51113 -81.18228 8971 ft 260 kts 266°
2026-05-09 01:03 41.51010 -81.20624 8666 ft 257 kts 266°
2026-05-09 01:03 41.50910 -81.22996 8369 ft 255 kts 266°
2026-05-09 01:04 41.50810 -81.25352 8093 ft 253 kts 266°
2026-05-09 01:04 41.50711 -81.27689 7812 ft 251 kts 266°
2026-05-09 01:04 41.50612 -81.30005 7538 ft 250 kts 266°
2026-05-09 01:04 41.50513 -81.32311 7248 ft 248 kts 266°
2026-05-09 01:05 41.50415 -81.34603 6990 ft 247 kts 266°
2026-05-09 01:05 41.50317 -81.36892 6707 ft 246 kts 266°
2026-05-09 01:05 41.50119 -81.41432 6130 ft 245 kts 265°
2026-05-09 01:06 41.50060 -81.43683 5952 ft 240 kts 269°
2026-05-09 01:06 41.50111 -81.45882 5773 ft 234 kts 270°
2026-05-09 01:06 41.50175 -81.48031 5633 ft 229 kts 270°
2026-05-09 01:06 41.50233 -81.50123 5490 ft 223 kts 270°
2026-05-09 01:07 41.50346 -81.52161 5345 ft 219 kts 281°
2026-05-09 01:07 41.51118 -81.53909 5213 ft 225 kts 312°
2026-05-09 01:07 41.52540 -81.54826 5090 ft 237 kts 343°
2026-05-09 01:07 41.54239 -81.54585 5044 ft 261 kts 15°
2026-05-09 01:08 41.55779 -81.53164 5019 ft 282 kts 46°
2026-05-09 01:08 41.56763 -81.50861 5031 ft 291 kts 68°
2026-05-09 01:08 41.57450 -81.48282 5019 ft 295 kts 71°
2026-05-09 01:08 41.58086 -81.45745 4997 ft 288 kts 71°
2026-05-09 01:09 41.58708 -81.43250 4977 ft 277 kts 71°
2026-05-09 01:09 41.59304 -81.40846 4996 ft 269 kts 71°
2026-05-09 01:09 41.59888 -81.38477 5010 ft 269 kts 71°
2026-05-09 01:09 41.60478 -81.36082 5020 ft 272 kts 71°
2026-05-09 01:10 41.61072 -81.33671 5020 ft 272 kts 71°
2026-05-09 01:10 41.61663 -81.31267 5015 ft 273 kts 71°
2026-05-09 01:10 41.62256 -81.28856 5022 ft 273 kts 71°
2026-05-09 01:10 41.62842 -81.26461 5015 ft 274 kts 71°
2026-05-09 01:11 41.63435 -81.24039 5023 ft 275 kts 71°
2026-05-09 01:11 41.64031 -81.21610 5019 ft 275 kts 71°
2026-05-09 01:11 41.64624 -81.19182 5011 ft 274 kts 71°
2026-05-09 01:11 41.65212 -81.16772 5016 ft 269 kts 71°
2026-05-09 01:12 41.65798 -81.14391 5021 ft 269 kts 71°
2026-05-09 01:12 41.66387 -81.12012 5026 ft 270 kts 71°
2026-05-09 01:12 41.66980 -81.09632 5024 ft 269 kts 71°
2026-05-09 01:12 41.67573 -81.07254 5022 ft 269 kts 71°
2026-05-09 01:13 41.68188 -81.04887 5013 ft 269 kts 65°
2026-05-09 01:13 41.69265 -81.02945 5021 ft 259 kts 32°
2026-05-09 01:13 41.70845 -81.01975 5014 ft 245 kts
2026-05-09 01:13 41.72457 -81.02202 5030 ft 228 kts 329°
2026-05-09 01:14 41.73862 -81.03178 5028 ft 229 kts 322°
2026-05-09 01:14 41.75232 -81.04264 5025 ft 228 kts 321°
2026-05-09 01:14 41.76588 -81.05353 5014 ft 226 kts 321°
2026-05-09 01:14 41.77928 -81.06429 5008 ft 223 kts 321°
2026-05-09 01:15 41.79256 -81.07490 5010 ft 221 kts 321°
2026-05-09 01:15 41.80575 -81.08541 5012 ft 221 kts 321°
2026-05-09 01:15 41.81915 -81.09611 5024 ft 225 kts 321°
2026-05-09 01:15 41.83267 -81.10698 5027 ft 228 kts 321°
2026-05-09 01:16 41.84553 -81.11857 5002 ft 221 kts 307°
2026-05-09 01:16 41.85249 -81.13588 5016 ft 205 kts 274°
2026-05-09 01:16 41.85050 -81.15395 5010 ft 201 kts 242°
2026-05-09 01:17 41.83279 -81.18319 5021 ft 204 kts 231°
2026-05-09 01:17 41.82329 -81.19736 5017 ft 205 kts 231°
2026-05-09 01:17 41.81371 -81.21163 5016 ft 206 kts 231°
2026-05-09 01:17 41.80408 -81.22594 5022 ft 207 kts 231°
2026-05-09 01:18 41.79441 -81.24031 5020 ft 208 kts 231°
2026-05-09 01:18 41.78468 -81.25476 5016 ft 208 kts 231°
2026-05-09 01:18 41.77494 -81.26921 5017 ft 209 kts 231°
2026-05-09 01:18 41.76520 -81.28367 5026 ft 209 kts 231°
2026-05-09 01:19 41.75562 -81.29832 5002 ft 209 kts 233°
2026-05-09 01:19 41.74645 -81.31335 5023 ft 208 kts 234°
2026-05-09 01:19 41.73731 -81.32847 5019 ft 209 kts 233°
2026-05-09 01:19 41.72830 -81.34337 5017 ft 208 kts 233°
2026-05-09 01:20 41.71917 -81.35843 4984 ft 209 kts 234°
2026-05-09 01:20 41.70998 -81.37356 4934 ft 209 kts 233°
2026-05-09 01:20 41.70096 -81.38836 4861 ft 201 kts 233°
2026-05-09 01:20 41.69233 -81.40249 4809 ft 191 kts 234°
2026-05-09 01:21 41.68414 -81.41590 4758 ft 180 kts 234°
2026-05-09 01:21 41.67643 -81.42851 4757 ft 173 kts 234°
2026-05-09 01:21 41.66879 -81.44101 4720 ft 174 kts 234°
2026-05-09 01:21 41.66116 -81.45348 4695 ft 172 kts 234°
2026-05-09 01:22 41.65360 -81.46586 4655 ft 171 kts 234°
2026-05-09 01:22 41.64609 -81.47814 4603 ft 171 kts 234°
2026-05-09 01:22 41.63862 -81.49036 4562 ft 169 kts 234°
2026-05-09 01:22 41.63118 -81.50249 4520 ft 169 kts 234°
2026-05-09 01:23 41.62380 -81.51451 4495 ft 166 kts 234°
2026-05-09 01:23 41.61647 -81.52646 4441 ft 166 kts 234°
2026-05-09 01:23 41.60909 -81.53849 4506 ft 168 kts 234°
2026-05-09 01:23 41.60161 -81.55068 4502 ft 170 kts 234°
2026-05-09 01:24 41.59411 -81.56289 4503 ft 170 kts 234°
2026-05-09 01:24 41.58657 -81.57516 4499 ft 171 kts 234°
2026-05-09 01:24 41.57914 -81.58723 4497 ft 170 kts 234°
2026-05-09 01:24 41.57155 -81.59957 4500 ft 170 kts 234°
2026-05-09 01:25 41.56416 -81.61159 4498 ft 170 kts 234°
2026-05-09 01:25 41.55667 -81.62375 4496 ft 169 kts 234°
2026-05-09 01:25 41.54917 -81.63592 4503 ft 170 kts 234°
2026-05-09 01:25 41.54173 -81.64798 4478 ft 164 kts 234°
2026-05-09 01:26 41.53472 -81.65937 4355 ft 153 kts 234°
2026-05-09 01:26 41.52824 -81.66998 4229 ft 145 kts 234°
2026-05-09 01:26 41.52173 -81.68046 4042 ft 149 kts 233°
2026-05-09 01:26 41.51499 -81.69119 3848 ft 151 kts 233°
2026-05-09 01:27 41.50825 -81.70187 3618 ft 149 kts 233°
2026-05-09 01:27 41.50158 -81.71244 3432 ft 149 kts 232°
2026-05-09 01:27 41.49494 -81.72294 3238 ft 148 kts 232°
2026-05-09 01:27 41.48834 -81.73338 3035 ft 149 kts 232°
2026-05-09 01:28 41.48158 -81.74408 2835 ft 152 kts 232°
2026-05-09 01:28 41.47476 -81.75487 2622 ft 150 kts 232°
2026-05-09 01:28 41.46810 -81.76542 2415 ft 145 kts 232°
2026-05-09 01:28 41.46198 -81.77511 2235 ft 130 kts 232°
2026-05-09 01:29 41.45609 -81.78444 2096 ft 132 kts 232°
2026-05-09 01:29 41.45028 -81.79364 1926 ft 133 kts 231°
2026-05-09 01:29 41.44440 -81.80307 1692 ft 131 kts 231°
2026-05-09 01:29 41.43858 -81.81240 1520 ft 135 kts 229°
2026-05-09 01:30 41.43206 -81.82266 1294 ft 152 kts 229°
2026-05-09 01:30 41.42514 -81.83361 1112 ft 157 kts 227°
2026-05-09 01:30 41.41802 -81.84492 863 ft 162 kts 228°
2026-05-09 01:30 41.41118 -81.85567 788 ft 134 kts 231°
2026-05-09 01:31 41.40612 -81.86365 782 ft 91 kts 231°
2026-05-09 01:31 41.40236 -81.86734 772 ft 49 kts 185°
2026-05-09 01:31 41.40127 -81.86784 775 ft 0 kts 251°
2026-05-09 01:32 41.40092 -81.86893 773 ft 15 kts 241°
2026-05-09 01:32 41.40027 -81.86975 773 ft 9 kts 184°
2026-05-09 01:32 41.39973 -81.86938 772 ft 11 kts 143°
2026-05-09 01:32 41.39888 -81.86841 770 ft 19 kts 140°
2026-05-09 01:33 41.39789 -81.86731 772 ft 18 kts 140°
2026-05-09 01:33 41.39743 -81.86616 775 ft 15 kts 65°
2026-05-09 01:33 41.39804 -81.86513 773 ft 14 kts 51°
2026-05-09 01:33 41.39854 -81.86434 774 ft 6 kts 49°
2026-05-09 01:34 41.39883 -81.86390 774 ft 6 kts 50°
2026-05-09 01:34 41.39915 -81.86339 773 ft 10 kts 50°
2026-05-09 01:34 41.39963 -81.86262 772 ft 11 kts 49°
2026-05-09 01:34 41.40014 -81.86184 773 ft 13 kts 52°
2026-05-09 01:35 41.40066 -81.86097 774 ft 24 kts 51°
2026-05-09 01:35 41.40202 -81.85956 777 ft 26 kts 12°
2026-05-09 01:35 41.40353 -81.85846 781 ft 25 kts 49°
2026-05-09 01:35 41.40454 -81.85686 785 ft 19 kts 49°
2026-05-09 01:36 41.40536 -81.85557 784 ft 18 kts 51°
2026-05-09 01:36 41.40601 -81.85454 784 ft 12 kts 49°
2026-05-09 01:36 41.40648 -81.85367 784 ft 11 kts 68°
2026-05-09 01:36 41.40651 -81.85269 783 ft 9 kts 94°
2026-05-09 01:37 41.40650 -81.85236 784 ft 2 kts 93°
2026-05-09 01:37 41.40648 -81.85198 784 ft 5 kts 92°
2026-05-09 01:37 41.40646 -81.85114 786 ft 12 kts 93°
2026-05-09 01:37 41.40637 -81.84961 790 ft 21 kts 95°
2026-05-09 01:38 41.40628 -81.84729 791 ft 28 kts 93°
2026-05-09 01:38 41.40618 -81.84524 795 ft 17 kts 93°
2026-05-09 01:38 41.40687 -81.84432 796 ft 16 kts
2026-05-09 01:38 41.40799 -81.84436 796 ft 16 kts 358°
2026-05-09 01:39 41.40882 -81.84428 797 ft 10 kts 24°
2026-05-09 01:39 41.40952 -81.84379 798 ft 13 kts
2026-05-09 01:39 41.41054 -81.84381 799 ft 15 kts 358°
2026-05-09 01:39 41.41136 -81.84383 798 ft 8 kts
2026-05-09 01:40 41.41167 -81.84356 798 ft 6 kts 109°
2026-05-09 01:40 41.41148 -81.84306 798 ft 6 kts 117°
2026-05-09 01:40 41.41138 -81.84255 798 ft 6 kts 94°
2026-05-09 01:40 41.41137 -81.84245 798 ft 0 kts 95°
2026-05-09 01:41 41.41137 -81.84243 798 ft 0 kts 95°